VANGUARD DEB, 1576

Orbit data source: Space-Track

VANGUARD DEB, 1576 is space debris in LEO originally from a launch on Mon, 17 Mar 1958 UTC launched from the Air Force Eastern Test Range (AFETR). Debris objects in space refer to the collection of defunct objects orbiting the Earth. Examples of debris include non-operational satellites, rocket bodies, and fragments generated from explosions, collisions, or faulty payload assembly.

Loading next visibility...
Identifier
1576, 1958-002C
Orbit
LEO
Country
Flag of USUS
Related business
Manufacturer
NRL
Mission
Spacecraft
Bus & Motor
Unknown
Mass
Unknown
Launch date (UTC)
1958-03-17 (68 years ago)
Launch vehicle
Unknown
Launch site
Air Force Eastern Test Range (AFETR)
Object type
Payload
Rocket body
Debris
Shape & HBR
Unknown
Radar Cross Section
Small (<0.1 m²)

Expand to show TLE details & history
Last TLE update: 20 hours ago

TLE from 20 hours ago
0 VANGUARD DEB
1 01576U 58002C   25259.40930911  .00000641  00000-0  55898-3 0  9993
2 01576  34.2297  30.3844 1399023 356.6390   2.5577 11.82002754769692
Epoch: 2025-09-16T09:49Z
TLE epoch observation values (Epoch: 2025-09-16T09:49:24.307Z)
Latitude
-0.00004°
Longitude
-112.56697°
Altitude
624.29 km
Speed
8.057 km/s
True Right ascension
02h 01m 32s
True Declination
0° 00' 00"
Sunlit
Object was in full shadow at epoch
Visualization orbit readout
Latitude
Unknown
Longitude
Unknown
Altitude
Unknown
Speed
Unknown
Apparent Right ascension
Unknown
Apparent Declination
Unknown
Sunlit
N/A
Visualization observer readout
Local Sidereal Time
22:04:46
Azimuth
Unknown
Elevation
Unknown
Doppler factor
Unknown
Orbital elements
Apogee altitude
2,904.691 km
Perigee altitude
626.094 km
Semi-major axis
8,143.529 km
Eccentricity
0.1399
Inclination
34.2297°
RAAN
30.3844°
Arg. of periapsis
356.639°
True anomaly
3.42293°
Mean anomaly
2.5577°
Eccentric anomaly
2.97351°
Mean motion
2.95341 °/min
Orbital period
121.89 mins
BSTAR
0.00055898
Loading maneuver chart data...
Computing Atmospheric mass density...
Loading historical data...
Loading historical data...
Loading historical data...
Loading historical data...
Loading historical data...
Loading historical data...
Loading historical data...
Other satellites on launch #2 in the year 1958 (1958-03-17 UTC)

Documentation

Showing up to 5 results
|